[[{"header":{"parameterUnit":"m.s-1","parameterCategory":2,"la1":30.2992,"la2":30.254,"lo1":-89.0895,"lo2":-89.0443,"dy":0.0025,"dx":0.0025,"nx":19,"ny":19,"refTime":"2026-04-12T09:00:00:Z","depth":"0","parameterNumber":2,"parameterNumberName":"U-component_of_CURRENTS"},"data":[0,0,0,0.1258,0.1258,0.1282,0.1282,0.1412,0.1413,0,0,0,0,0,0,0,0,0,0,0,0.1251,0.1251,0.1258,0.1258,0.1282,0.1282,0.1411,0.1413,0,0,0,0,0,0,0,0,0,0,0,0.1251,0.1251,0.1251,0.1258,0.1282,0.1282,0.1411,0.1371,0,0,0,0,0,0,0,0,0,0,0.1336,0.1323,0.1251,0.1251,0.1258,0.1282,0.1282,0.1368,0.1374,0.1426,0,0.1421,0,0.1418,0.1423,0.1424,0,0,0,0.1268,0.1318,0.1312,0.1251,0.1258,0.1282,0.1274,0.137,0.1377,0.1434,0.1423,0.1427,0.142,0.1424,0.1425,0.1595,0.1596,0,0,0.1267,0.1273,0.1307,0.1315,0.1257,0.1273,0.1275,0.1373,0.1387,0.1423,0.143,0.1423,0.1425,0.1426,0.1595,0.1596,0,0,0,0.1256,0.1272,0.1262,0.1311,0.1306,0.1274,0.1275,0.1382,0.1375,0.1431,0.1424,0.1426,0.1428,0.1594,0.1595,0.1588,0,0,0,0.1256,0.1265,0.1262,0.1268,0.1303,0.1334,0.1283,0.1368,0.1379,0.1423,0.1426,0.1429,0.1593,0.1594,0.1586,0.1572,0,0,0,0.1251,0.1265,0.1262,0.1268,0.1272,0.1331,0.133,0.137,0.1375,0.1424,0.143,0.1592,0.1594,0.1585,0.157,0.1573,0,0,0,0.1266,0.126,0.1262,0.1264,0.1272,0.1307,0.1329,0.137,0.1411,0.1427,0.1593,0.1595,0.1584,0.157,0.1572,0.14,0.139,0,0,0.1262,0.126,0.1261,0.1262,0.1281,0.1305,0.1367,0.1423,0.1461,0.1568,0.1571,0.1587,0.157,0.1573,0.1504,0.149,0,0,0,0.1263,0.1258,0.1268,0.1278,0.1308,0.1359,0.1412,0.1458,0.1546,0.1491,0.1626,0.1616,0.1617,0.1513,0.1504,0.1321,0.1603,0.1603,0.1603,0.1268,0.127,0.1277,0.1291,0.1332,0.1411,0.1468,0.1548,0.1579,0.1626,0.1639,0.1675,0.1567,0.1557,0.1373,0.1679,0.1679,0.1679,0.1679,0.1248,0.1239,0.1273,0.1274,0.1342,0.1403,0.1536,0.1575,0.1672,0.1685,0.1686,0.1547,0.1545,0.1353,0.168,0.168,0.168,0.1679,0.1679,0.1227,0.1222,0.1223,0.1245,0.1305,0.1397,0.1477,0.1576,0.1656,0.168,0.156,0.1557,0.136,0.1673,0.1673,0.1673,0.1673,0.1673,0.1673,0.1199,0.12,0.12,0.1221,0.125,0.1316,0.1443,0.1496,0.1522,0.1539,0.1537,0.1343,0.1673,0.1641,0.1673,0.1673,0.1673,0.1673,0.1673,0.1171,0.1175,0.1168,0.1183,0.123,0.1228,0.1343,0.1336,0.1383,0.135,0.1145,0.1466,0.1447,0.1453,0.1417,0.1389,0.1389,0.1389,0.1389,0.1166,0.1162,0.1157,0.117,0.1191,0.1202,0.113,0.1111,0.1011,0.0897,0.0929,0.0861,0.0881,0.0827,0.0847,0.0799,0.0615,0.0614,0.0613,0.1175,0.1162,0.1157,0.1148,0.1167,0.1134,0.0994,0.0803,0.06,0.057,0.0711,0.0744,0.064,0.0685,0.0601,0.0644,0.0567,0,0]},{"header":{"parameterUnit":"m.s-1","parameterCategory":2,"la1":30.2992,"la2":30.254,"lo1":-89.0895,"lo2":-89.0443,"dy":0.0025,"dx":0.0025,"nx":19,"ny":19,"refTime":"2026-04-12T09:00:00:Z","depth":"0","parameterNumber":3,"parameterNumberName":"V-component_of_CURRENTS"},"data":[0,0,0,0.027,0.027,0.0286,0.0286,0.0337,0.0337,0,0,0,0,0,0,0,0,0,0,0,0.0266,0.0266,0.027,0.027,0.0286,0.0286,0.0337,0.0337,0,0,0,0,0,0,0,0,0,0,0,0.0266,0.0266,0.0266,0.027,0.0286,0.0286,0.0337,0.0319,0,0,0,0,0,0,0,0,0,0,0.03,0.0297,0.0266,0.0266,0.027,0.0286,0.0286,0.0318,0.032,0.0336,0,0.0334,0,0.0334,0.0341,0.0341,0,0,0,0.0277,0.0296,0.029,0.0266,0.027,0.0286,0.0281,0.0319,0.0321,0.0339,0.0335,0.0336,0.0335,0.0341,0.0341,0.0436,0.0437,0,0,0.0276,0.028,0.0288,0.0292,0.0269,0.028,0.0281,0.032,0.0327,0.0335,0.0337,0.0336,0.0342,0.0342,0.0436,0.0437,0,0,0,0.0269,0.028,0.0273,0.029,0.0289,0.0281,0.0282,0.0326,0.032,0.0338,0.0336,0.0342,0.0342,0.0435,0.0436,0.0504,0,0,0,0.0269,0.0275,0.0273,0.0277,0.0288,0.0305,0.0286,0.0318,0.0322,0.0336,0.0342,0.0343,0.0434,0.0436,0.05,0.0541,0,0,0,0.0266,0.0275,0.0272,0.0277,0.0279,0.0304,0.0302,0.0319,0.0321,0.0341,0.0343,0.0434,0.0435,0.0497,0.0536,0.0606,0,0,0,0.0275,0.0277,0.0273,0.0284,0.0279,0.031,0.0302,0.0329,0.0348,0.0342,0.0434,0.0436,0.0496,0.0533,0.0603,0.0612,0.0631,0,0,0.0282,0.0279,0.0286,0.0282,0.0315,0.0309,0.0371,0.0386,0.0379,0.0423,0.0425,0.0502,0.0536,0.0606,0.0702,0.0718,0,0,0,0.0292,0.0298,0.0308,0.0326,0.0343,0.0399,0.0405,0.0427,0.0477,0.0396,0.0514,0.0534,0.0576,0.0574,0.0587,0.0604,0.0443,0.0443,0.0443,0.0317,0.0324,0.0353,0.0375,0.0407,0.0463,0.0517,0.0553,0.0525,0.0564,0.0598,0.0711,0.071,0.072,0.0737,0.0602,0.0603,0.0603,0.0603,0.034,0.0358,0.0392,0.042,0.0482,0.0538,0.0633,0.0646,0.074,0.0684,0.0721,0.0656,0.0738,0.0752,0.0608,0.0607,0.0606,0.0606,0.0605,0.0354,0.0365,0.0382,0.0442,0.0529,0.06,0.0734,0.0785,0.0808,0.086,0.0854,0.0853,0.0858,0.0874,0.0874,0.0875,0.0875,0.0876,0.0876,0.0358,0.0377,0.0417,0.0477,0.054,0.0653,0.0803,0.0882,0.095,0.0947,0.0946,0.0908,0.0794,0.0776,0.0884,0.0882,0.0881,0.0881,0.088,0.0374,0.0384,0.0441,0.0496,0.064,0.0761,0.0886,0.1029,0.1097,0.1124,0.1072,0.0997,0.0981,0.0969,0.0955,0.1104,0.1104,0.1104,0.1104,0.0392,0.0398,0.0487,0.0581,0.0711,0.0824,0.0997,0.1102,0.1163,0.1177,0.1175,0.1107,0.1097,0.1084,0.1069,0.1055,0.1226,0.1226,0.1226,0.0424,0.0442,0.0514,0.0595,0.0745,0.0885,0.1023,0.1111,0.1188,0.1232,0.1205,0.12,0.1097,0.1079,0.1048,0.1026,0.0998,0,0]}],[{"header":{"parameterUnit":"m.s-1","parameterCategory":2,"la1":30.2992,"la2":30.254,"lo1":-89.0895,"lo2":-89.0443,"dy":0.0025,"dx":0.0025,"nx":19,"ny":19,"refTime":"2026-04-12T09:00:00:Z","depth":"2","parameterNumber":2,"parameterNumberName":"U-component_of_CURRENTS"},"data":[0,0,0,0.1204,0.1204,0.1233,0.1233,0.1347,0.1348,0,0,0,0,0,0,0,0,0,0,0,0.12,0.12,0.1204,0.1204,0.1233,0.1233,0.1346,0.1348,0,0,0,0,0,0,0,0,0,0,0,0.12,0.12,0.12,0.1204,0.1233,0.1233,0.1346,0.1308,0,0,0,0,0,0,0,0,0,0,0.1271,0.1257,0.12,0.12,0.1204,0.1233,0.1233,0.1305,0.131,0.1353,0,0.1354,0,0.1349,0.1356,0.1357,0,0,0,0.1214,0.1253,0.1254,0.12,0.1204,0.1232,0.1222,0.1307,0.1313,0.136,0.1355,0.1358,0.1351,0.1357,0.1358,0.1517,0.1518,0,0,0.1212,0.1215,0.125,0.1257,0.121,0.1221,0.1223,0.131,0.1321,0.1355,0.1361,0.1353,0.1358,0.1359,0.1516,0.1517,0,0,0,0.1201,0.1214,0.1212,0.1253,0.125,0.1222,0.1224,0.1317,0.1315,0.1362,0.1354,0.1358,0.136,0.1515,0.1517,0.152,0,0,0,0.12,0.1206,0.1211,0.1215,0.1248,0.1274,0.123,0.1309,0.1318,0.1353,0.1359,0.1361,0.1515,0.1516,0.1518,0.1504,0,0,0,0.1199,0.1207,0.1207,0.1214,0.1221,0.1272,0.1275,0.131,0.1313,0.1357,0.1362,0.1514,0.1516,0.1516,0.1502,0.1512,0,0,0,0.1205,0.1204,0.1207,0.1212,0.122,0.1257,0.1274,0.1315,0.1353,0.1359,0.1515,0.1517,0.1516,0.1501,0.1511,0.1322,0.1312,0,0,0.1203,0.1204,0.1206,0.1209,0.1225,0.1254,0.1313,0.1367,0.14,0.1491,0.1494,0.1519,0.1502,0.1511,0.1432,0.1418,0,0,0,0.1205,0.1203,0.121,0.1221,0.1251,0.1297,0.1353,0.1401,0.1486,0.1429,0.1557,0.1547,0.1552,0.1437,0.1428,0.1526,0.1525,0.1525,0.1525,0.1207,0.1211,0.1217,0.1232,0.1272,0.1348,0.1403,0.1486,0.1519,0.1569,0.1578,0.1625,0.1506,0.1496,0.162,0.162,0.162,0.162,0.162,0.119,0.1185,0.1218,0.1221,0.1283,0.1348,0.1472,0.1515,0.1616,0.1629,0.1634,0.1482,0.1484,0.1621,0.1621,0.1621,0.1621,0.1621,0.162,0.1171,0.1169,0.1173,0.12,0.126,0.1348,0.1428,0.1524,0.1608,0.1634,0.1511,0.1508,0.1596,0.1641,0.1641,0.1641,0.1641,0.1641,0.1641,0.1146,0.115,0.1158,0.1181,0.1209,0.128,0.1402,0.1447,0.1473,0.1497,0.1495,0.1632,0.1631,0.1599,0.1641,0.1641,0.1641,0.1641,0.1641,0.1121,0.1127,0.1129,0.1144,0.1193,0.1181,0.1296,0.1278,0.1325,0.1287,0.1417,0.1422,0.1397,0.1403,0.1365,0.1345,0.1345,0.1345,0.1345,0.1114,0.1113,0.1121,0.1134,0.1149,0.115,0.1065,0.1023,0.1073,0.1087,0.1099,0.1046,0.1063,0.1018,0.1033,0.0988,0.087,0.0869,0.0868,0.1118,0.1109,0.1114,0.1113,0.1119,0.1077,0.0922,0.0718,0.0688,0.0856,0.108,0.1301,0.1252,0.1267,0.1223,0.1237,0.1174,0,0]},{"header":{"parameterUnit":"m.s-1","parameterCategory":2,"la1":30.2992,"la2":30.254,"lo1":-89.0895,"lo2":-89.0443,"dy":0.0025,"dx":0.0025,"nx":19,"ny":19,"refTime":"2026-04-12T09:00:00:Z","depth":"2","parameterNumber":3,"parameterNumberName":"V-component_of_CURRENTS"},"data":[0,0,0,0.0126,0.0126,0.0149,0.0149,0.0187,0.0187,0,0,0,0,0,0,0,0,0,0,0,0.0122,0.0122,0.0126,0.0126,0.0149,0.0149,0.0187,0.0187,0,0,0,0,0,0,0,0,0,0,0,0.0122,0.0122,0.0122,0.0126,0.0149,0.0149,0.0187,0.0169,0,0,0,0,0,0,0,0,0,0,0.0147,0.0143,0.0122,0.0122,0.0126,0.0149,0.0149,0.0168,0.017,0.0177,0,0.0179,0,0.018,0.0189,0.0189,0,0,0,0.0133,0.0142,0.0142,0.0122,0.0126,0.0149,0.0141,0.0169,0.0171,0.018,0.0179,0.0181,0.018,0.0189,0.019,0.0267,0.0267,0,0,0.0131,0.0133,0.014,0.0143,0.0131,0.014,0.0141,0.0171,0.0176,0.018,0.0182,0.0181,0.019,0.019,0.0266,0.0267,0,0,0,0.0123,0.0132,0.0131,0.0141,0.0143,0.014,0.0142,0.0175,0.0173,0.0182,0.0181,0.019,0.019,0.0265,0.0266,0.0339,0,0,0,0.0123,0.0126,0.0131,0.0133,0.0142,0.0159,0.0146,0.0171,0.0174,0.0181,0.019,0.0191,0.0265,0.0266,0.0335,0.0373,0,0,0,0.0121,0.0126,0.0127,0.0132,0.0138,0.0158,0.0158,0.0172,0.0174,0.0189,0.0191,0.0264,0.0266,0.0332,0.0367,0.0437,0,0,0,0.0124,0.013,0.0127,0.014,0.0138,0.0168,0.0158,0.0184,0.02,0.019,0.0265,0.0266,0.0331,0.0364,0.0433,0.0419,0.0435,0,0,0.0133,0.0131,0.014,0.0138,0.0168,0.0165,0.0222,0.0235,0.0226,0.0255,0.0257,0.0336,0.0367,0.0436,0.0502,0.0516,0,0,0,0.0144,0.0151,0.016,0.0178,0.0195,0.0239,0.0248,0.0273,0.0317,0.024,0.0345,0.0363,0.0404,0.0387,0.0399,0.0273,0.0273,0.0273,0.0273,0.0165,0.0174,0.0202,0.0221,0.025,0.0298,0.0346,0.0382,0.036,0.0399,0.0428,0.0539,0.0522,0.053,0.0432,0.0432,0.0432,0.0433,0.0433,0.019,0.0207,0.024,0.0268,0.0318,0.0372,0.0454,0.0469,0.0561,0.0511,0.0548,0.0472,0.0547,0.0439,0.0438,0.0437,0.0436,0.0436,0.0435,0.0202,0.0212,0.0233,0.0291,0.0371,0.0434,0.0558,0.0601,0.063,0.0678,0.0665,0.0663,0.059,0.0703,0.0703,0.0704,0.0704,0.0705,0.0705,0.0202,0.0224,0.0266,0.0324,0.0381,0.049,0.0625,0.0694,0.0753,0.0754,0.0753,0.0631,0.0622,0.0606,0.0712,0.0711,0.071,0.0709,0.0709,0.0212,0.0226,0.0283,0.0333,0.047,0.0576,0.0693,0.0818,0.0879,0.0899,0.0798,0.0793,0.0772,0.0761,0.0749,0.0886,0.0886,0.0886,0.0886,0.0224,0.0232,0.0322,0.0408,0.0527,0.0627,0.0774,0.084,0.0868,0.0845,0.0847,0.0766,0.076,0.0733,0.0722,0.0706,0.0833,0.0833,0.0833,0.0244,0.0261,0.0335,0.0419,0.0551,0.0679,0.0784,0.0794,0.0771,0.0829,0.0813,0.0887,0.0768,0.0759,0.0712,0.0698,0.0669,0,0]}],[{"header":{"parameterUnit":"m.s-1","parameterCategory":2,"la1":30.2992,"la2":30.254,"lo1":-89.0895,"lo2":-89.0443,"dy":0.0025,"dx":0.0025,"nx":19,"ny":19,"refTime":"2026-04-12T09:00:00:Z","depth":"4","parameterNumber":2,"parameterNumberName":"U-component_of_CURRENTS"},"data":[0,0,0,0.0638,0.0639,0.0668,0.0668,0.0671,0.0671,0,0,0,0,0,0,0,0,0,0,0,0.063,0.0631,0.0638,0.0639,0.0668,0.0668,0.0671,0.0671,0,0,0,0,0,0,0,0,0,0,0,0.063,0.0631,0.0631,0.0639,0.0668,0.0668,0.0671,0.0655,0,0,0,0,0,0,0,0,0,0,0.063,0.0626,0.0631,0.0631,0.0639,0.0668,0.0668,0.0655,0.0656,0.065,0,0.0665,0,0.067,0.0671,0.0671,0,0,0,0.063,0.0625,0.064,0.0631,0.0639,0.0668,0.0652,0.0656,0.0657,0.0652,0.0665,0.0666,0.067,0.0671,0.0671,0.0718,0.0719,0,0,0.0629,0.0626,0.0639,0.0641,0.066,0.0651,0.0653,0.0657,0.0659,0.0665,0.0666,0.067,0.0671,0.0671,0.0718,0.0719,0,0,0,0.063,0.0625,0.0639,0.0641,0.065,0.0652,0.0655,0.0659,0.0666,0.0666,0.067,0.0671,0.0671,0.0717,0.0718,0.0734,0,0,0,0.0628,0.0626,0.0639,0.0636,0.0651,0.0658,0.0656,0.0666,0.0667,0.067,0.0671,0.0671,0.0717,0.0718,0.0733,0.0731,0,0,0,0.0627,0.0625,0.0634,0.0636,0.0653,0.0659,0.0666,0.0666,0.067,0.0671,0.0671,0.0716,0.0718,0.0731,0.0729,0.0745,0,0,0,0.0613,0.0623,0.0634,0.0639,0.0653,0.0654,0.0666,0.0676,0.0679,0.0671,0.0717,0.0718,0.0731,0.0727,0.0744,0.0607,0,0,0,0.0615,0.0623,0.0623,0.0634,0.0632,0.0648,0.0659,0.068,0.0696,0.071,0.0712,0.0733,0.0728,0.0745,0.068,0,0,0,0,0.0615,0.0617,0.0617,0.0621,0.0627,0.0643,0.0664,0.0687,0.0733,0.0706,0.0753,0.075,0.0759,0.0678,0.0724,0.0724,0.0724,0.0723,0.0723,0.0594,0.0599,0.0595,0.0606,0.0613,0.0647,0.0672,0.0714,0.073,0.0771,0.0778,0.0821,0.0738,0.08,0.0801,0.0801,0.0801,0.0801,0.0801,0.058,0.0575,0.0586,0.0595,0.0617,0.0639,0.0685,0.0725,0.0798,0.0806,0.0815,0.0719,0.0803,0.0803,0.0802,0.0802,0.0802,0.0802,0.0802,0.0558,0.0559,0.0576,0.059,0.0614,0.0648,0.0677,0.0753,0.0802,0.0836,0.0765,0.0834,0.0815,0.0857,0.0858,0.0858,0.0858,0.0858,0.0858,0.0536,0.0548,0.0554,0.0582,0.0593,0.0619,0.0692,0.0715,0.0787,0.0767,0.0855,0.084,0.0838,0.0819,0.0859,0.0859,0.0859,0.0859,0.0858,0.0515,0.0531,0.0521,0.0531,0.0538,0.0546,0.0626,0.0645,0.0677,0.067,0.0725,0.0731,0.071,0.0711,0.0687,0.0689,0.0687,0.0686,0,0.05,0.0506,0.0477,0.0455,0.0435,0.0482,0.0468,0.0502,0.0577,0.0567,0.067,0.0731,0.0735,0.0709,0.0708,0.0677,0,0,0,0.0488,0.0471,0.0433,0.0402,0.0373,0.0385,0.0449,0.0443,0.0582,0.0546,0.0645,0.0656,0.0729,0.0863,0.0846,0.0843,0.0812,0,0]},{"header":{"parameterUnit":"m.s-1","parameterCategory":2,"la1":30.2992,"la2":30.254,"lo1":-89.0895,"lo2":-89.0443,"dy":0.0025,"dx":0.0025,"nx":19,"ny":19,"refTime":"2026-04-12T09:00:00:Z","depth":"4","parameterNumber":3,"parameterNumberName":"V-component_of_CURRENTS"},"data":[0,0,0,0.0048,0.0048,0.0076,0.0077,0.015,0.0151,0,0,0,0,0,0,0,0,0,0,0,0.004,0.004,0.0048,0.0048,0.0076,0.0077,0.015,0.0151,0,0,0,0,0,0,0,0,0,0,0,0.004,0.004,0.004,0.0048,0.0076,0.0077,0.015,0.0121,0,0,0,0,0,0,0,0,0,0,0.009,0.0075,0.004,0.004,0.0048,0.0076,0.0077,0.012,0.0123,0.0145,0,0.0144,0,0.0146,0.0156,0.0156,0,0,0,0.0057,0.0072,0.0077,0.004,0.0049,0.0076,0.0066,0.0121,0.0125,0.015,0.0145,0.0148,0.0147,0.0156,0.0157,0.0233,0.0233,0,0,0.0055,0.0051,0.0074,0.0079,0.005,0.0065,0.0067,0.0124,0.0128,0.0145,0.0149,0.0148,0.0157,0.0157,0.0233,0.0233,0,0,0,0.0045,0.005,0.0053,0.0076,0.0077,0.0066,0.0068,0.0125,0.0125,0.015,0.0149,0.0157,0.0158,0.0232,0.0233,0.0248,0,0,0,0.0045,0.0043,0.0052,0.005,0.0075,0.0096,0.0068,0.0121,0.0128,0.0149,0.0157,0.0159,0.0232,0.0232,0.0247,0.0262,0,0,0,0.004,0.0043,0.0043,0.005,0.0057,0.0095,0.0099,0.0123,0.0127,0.0156,0.0159,0.0232,0.0232,0.0246,0.026,0.0283,0,0,0,0.0038,0.0042,0.0043,0.0055,0.0057,0.0093,0.0098,0.0131,0.0157,0.0158,0.0232,0.0233,0.0245,0.0259,0.0281,0.0258,0,0,0,0.0043,0.0042,0.0052,0.0053,0.0086,0.009,0.0137,0.0169,0.0175,0.0217,0.0218,0.0247,0.026,0.0282,0.0297,0,0,0,0,0.0054,0.0059,0.0071,0.0089,0.0114,0.0149,0.0174,0.0186,0.022,0.019,0.0256,0.0264,0.0278,0.0261,0.0236,0.0236,0.0236,0.0236,0.0236,0.0056,0.0073,0.0098,0.0125,0.0153,0.0195,0.0222,0.0245,0.0248,0.0262,0.0283,0.032,0.0303,0.0286,0.0286,0.0286,0.0286,0.0286,0.0286,0.007,0.0084,0.0119,0.0147,0.019,0.0231,0.0277,0.0283,0.0324,0.0309,0.0321,0.0285,0.0288,0.0287,0.0287,0.0287,0.0287,0.0287,0.0287,0.0069,0.0077,0.01,0.0148,0.0204,0.0254,0.0312,0.0338,0.0342,0.036,0.0349,0.0339,0.0331,0.0368,0.0368,0.0368,0.0369,0.0369,0.0369,0.0052,0.0076,0.0099,0.0152,0.0193,0.0258,0.0337,0.0365,0.0383,0.0376,0.0372,0.0348,0.0346,0.0337,0.0372,0.0371,0.0371,0.037,0.037,0.0039,0.0053,0.0082,0.0118,0.0211,0.0266,0.034,0.0394,0.0421,0.0416,0.0383,0.0381,0.0377,0.0374,0.0365,0.041,0.041,0.041,0,0.0029,0.0038,0.0077,0.013,0.0204,0.0275,0.0337,0.0377,0.0387,0.0375,0.0397,0.0356,0.0356,0.0347,0.0345,0.0333,0,0,0,0.0025,0.0036,0.0062,0.0118,0.0206,0.0292,0.0355,0.0364,0.0386,0.0407,0.0406,0.0407,0.0382,0.0379,0.037,0.0367,0.0352,0,0]}]]